AAL421 KJFK-KBOS

Flight info

Callsign AAL421
Flight time N/A
Altitude 21000
Route MERIT ROBUC3
Aircraft B38M/M-SDE1FGHILORVWXY/HB1

Departure

Time 2026-05-05 02:16
Airport John F. Kennedy International Airport (KJFK)

Arrival

Time N/A
Airport Boston Logan International Airport (KBOS)
Time Latitude Longitude Altitude Speed Heading
2026-05-05 01:32 40.64748 -73.79415 18 ft 0 kts 150°
2026-05-05 01:59 40.64764 -73.79427 10 ft 4 kts 150°
2026-05-05 01:59 40.64787 -73.79444 22 ft 4 kts 137°
2026-05-05 01:59 40.64800 -73.79472 21 ft 4 kts 97°
2026-05-05 01:59 40.64796 -73.79497 21 ft 0 kts 61°
2026-05-05 02:00 40.64796 -73.79498 18 ft 1 kts 61°
2026-05-05 02:02 40.64797 -73.79497 18 ft 1 kts 60°
2026-05-05 02:02 40.64801 -73.79485 19 ft 3 kts 64°
2026-05-05 02:03 40.64811 -73.79461 19 ft 4 kts 60°
2026-05-05 02:03 40.64828 -73.79422 18 ft 6 kts 60°
2026-05-05 02:03 40.64854 -73.79364 20 ft 8 kts 60°
2026-05-05 02:03 40.64887 -73.79288 18 ft 11 kts 60°
2026-05-05 02:04 40.64927 -73.79196 18 ft 13 kts 60°
2026-05-05 02:04 40.64975 -73.79085 18 ft 15 kts 60°
2026-05-05 02:04 40.65019 -73.78984 18 ft 10 kts 60°
2026-05-05 02:04 40.65039 -73.78938 18 ft 3 kts 60°
2026-05-05 02:05 40.65045 -73.78928 18 ft 1 kts 45°
2026-05-05 02:05 40.65046 -73.78928 18 ft 0 kts 44°
2026-05-05 02:06 40.65048 -73.78926 18 ft 0 kts 30°
2026-05-05 02:06 40.65055 -73.78924 20 ft 0 kts 16°
2026-05-05 02:08 40.65068 -73.78920 20 ft 1 kts 10°
2026-05-05 02:09 40.65104 -73.78915 18 ft 11 kts
2026-05-05 02:09 40.65143 -73.78807 18 ft 21 kts 78°
2026-05-05 02:09 40.65206 -73.78612 22 ft 24 kts 60°
2026-05-05 02:09 40.65267 -73.78426 18 ft 20 kts 91°
2026-05-05 02:10 40.65210 -73.78255 18 ft 21 kts 122°
2026-05-05 02:10 40.65167 -73.78158 18 ft 11 kts 121°
2026-05-05 02:10 40.65124 -73.78065 18 ft 13 kts 121°
2026-05-05 02:10 40.65157 -73.77972 20 ft 13 kts 34°
2026-05-05 02:11 40.65237 -73.77906 19 ft 14 kts 32°
2026-05-05 02:11 40.65326 -73.77836 19 ft 15 kts 34°
2026-05-05 02:11 40.65324 -73.77738 19 ft 14 kts 120°
2026-05-05 02:11 40.65246 -73.77574 18 ft 26 kts 121°
2026-05-05 02:12 40.65183 -73.77435 18 ft 27 kts 121°
2026-05-05 02:12 40.65037 -73.77112 19 ft 21 kts 120°
2026-05-05 02:12 40.64960 -73.76940 19 ft 24 kts 120°
2026-05-05 02:13 40.64882 -73.76759 19 ft 16 kts 105°
2026-05-05 02:13 40.64945 -73.76647 18 ft 18 kts 32°
2026-05-05 02:13 40.65066 -73.76555 18 ft 22 kts 30°
2026-05-05 02:13 40.65093 -73.76459 20 ft 0 kts 120°
2026-05-05 02:14 40.65082 -73.76434 19 ft 10 kts 120°
2026-05-05 02:15 40.65011 -73.76369 18 ft 11 kts 198°
2026-05-05 02:15 40.64840 -73.76499 18 ft 55 kts 211°
2026-05-05 02:15 40.64259 -73.76952 24 ft 136 kts 211°
2026-05-05 02:15 40.63291 -73.77737 313 ft 182 kts 211°
2026-05-05 02:16 40.62157 -73.78670 1176 ft 201 kts 212°
2026-05-05 02:16 40.60978 -73.79659 2358 ft 201 kts 214°
2026-05-05 02:16 40.59749 -73.80720 3135 ft 221 kts 216°
2026-05-05 02:16 40.58440 -73.81766 4131 ft 210 kts 212°
2026-05-05 02:17 40.57153 -73.82684 4718 ft 211 kts 211°
2026-05-05 02:17 40.55861 -73.83580 4949 ft 210 kts 211°
2026-05-05 02:17 40.54563 -73.84465 5010 ft 211 kts 211°
2026-05-05 02:17 40.53278 -73.85348 4932 ft 210 kts 211°
2026-05-05 02:18 40.51990 -73.86235 4924 ft 209 kts 211°
2026-05-05 02:18 40.50667 -73.87150 4989 ft 221 kts 211°
2026-05-05 02:18 40.49283 -73.88110 5005 ft 228 kts 211°
2026-05-05 02:18 40.47872 -73.89098 4994 ft 231 kts 211°
2026-05-05 02:19 40.46448 -73.90091 5001 ft 231 kts 211°
2026-05-05 02:19 40.45028 -73.91077 4998 ft 231 kts 211°
2026-05-05 02:19 40.43605 -73.92074 4996 ft 231 kts 211°
2026-05-05 02:19 40.42184 -73.93068 4982 ft 232 kts 211°
2026-05-05 02:20 40.40718 -73.93915 4964 ft 235 kts 195°
2026-05-05 02:20 40.39068 -73.93766 5172 ft 247 kts 163°
2026-05-05 02:20 40.37653 -73.92421 5972 ft 260 kts 132°
2026-05-05 02:20 40.36833 -73.90272 6917 ft 272 kts 102°
2026-05-05 02:21 40.36964 -73.87803 7901 ft 274 kts 68°
2026-05-05 02:21 40.38008 -73.85748 8794 ft 272 kts 36°
2026-05-05 02:21 40.39634 -73.84578 9828 ft 266 kts 16°
2026-05-05 02:21 40.41334 -73.83512 10644 ft 275 kts 26°
2026-05-05 02:22 40.43009 -73.82251 11338 ft 289 kts 25°
2026-05-05 02:22 40.44819 -73.80903 11811 ft 309 kts 25°
2026-05-05 02:22 40.46755 -73.79468 12227 ft 330 kts 25°
2026-05-05 02:22 40.48826 -73.77939 12632 ft 351 kts 25°
2026-05-05 02:23 40.51002 -73.76338 13094 ft 367 kts 25°
2026-05-05 02:23 40.53266 -73.74685 13702 ft 377 kts 25°
2026-05-05 02:23 40.55574 -73.73020 14454 ft 380 kts 25°
2026-05-05 02:23 40.57910 -73.71351 15148 ft 384 kts 25°
2026-05-05 02:24 40.60259 -73.69679 15859 ft 387 kts 24°
2026-05-05 02:24 40.62645 -73.67984 16553 ft 392 kts 24°
2026-05-05 02:24 40.65058 -73.66268 17178 ft 396 kts 24°
2026-05-05 02:24 40.67483 -73.64546 16603 ft 399 kts 25°
2026-05-05 02:25 40.70045 -73.62647 15528 ft 421 kts 26°
2026-05-05 02:25 40.72443 -73.60417 14733 ft 429 kts 41°
2026-05-05 02:25 40.74417 -73.57519 14049 ft 431 kts 47°
2026-05-05 02:25 40.76343 -73.54497 13342 ft 430 kts 47°
2026-05-05 02:26 40.78258 -73.51497 12563 ft 421 kts 47°
2026-05-05 02:26 40.80110 -73.48599 11871 ft 407 kts 47°
2026-05-05 02:26 40.81906 -73.45792 11188 ft 394 kts 48°
2026-05-05 02:26 40.83335 -73.42774 10625 ft 383 kts 65°
2026-05-05 02:27 40.83977 -73.39463 10413 ft 363 kts 86°
2026-05-05 02:27 40.83705 -73.36275 10350 ft 338 kts 109°
2026-05-05 02:27 40.82643 -73.33654 10256 ft 314 kts 133°
2026-05-05 02:27 40.80974 -73.31940 10348 ft 300 kts 160°
2026-05-05 02:28 40.78995 -73.31328 10505 ft 288 kts 183°
2026-05-05 02:28 40.77077 -73.31782 10131 ft 276 kts 208°
2026-05-05 02:28 40.75554 -73.33240 9460 ft 271 kts 233°
2026-05-05 02:28 40.74694 -73.35421 8718 ft 271 kts 258°
2026-05-05 02:29 40.74672 -73.37885 7998 ft 272 kts 283°
2026-05-05 02:29 40.75525 -73.40101 7415 ft 274 kts 308°
2026-05-05 02:29 40.76913 -73.41801 6967 ft 271 kts 317°
2026-05-05 02:29 40.78353 -73.43371 6492 ft 267 kts 317°